Time,TemperatureF,DewpointF,PressureIn,WindDirection,WindDirectionDegrees,WindSpeedMPH,WindSpeedGustMPH,Humidity,HourlyPrecipIn,Conditions,Clouds,dailyrainin,SoftwareType,DateUTC
2013-05-25 00:14:00,72.7,71.5,30.07,South,180,2.2,-999.0,96,-99.99,,,0.00,Acu-Link.com,2013-05-25 05:14:00,
2013-05-25 00:29:00,72.5,71.6,30.07,SSE,157,2.2,-999.0,97,-99.99,,,0.00,Acu-Link.com,2013-05-25 05:29:00,
2013-05-25 00:44:00,72.1,71.5,30.07,NNW,337,1.1,-999.0,98,-99.99,,,0.00,Acu-Link.com,2013-05-25 05:44:00,
2013-05-25 01:00:00,71.8,71.2,30.07,NNW,337,0.0,-999.0,98,-99.99,,,0.00,Acu-Link.com,2013-05-25 06:00:00,
2013-05-25 01:15:00,71.6,71.3,30.06,SSE,157,0.0,-999.0,99,-99.99,,,0.00,Acu-Link.com,2013-05-25 06:15:00,
2013-05-25 01:30:00,71.4,71.1,30.06,ESE,112,0.0,-999.0,99,-99.99,,,0.00,Acu-Link.com,2013-05-25 06:30:00,
2013-05-25 01:46:00,71.4,71.1,30.06,NNW,337,0.0,-999.0,99,-99.99,,,0.00,Acu-Link.com,2013-05-25 06:46:00,
2013-05-25 02:01:00,71.2,70.9,30.06,ENE,67,0.0,-999.0,99,-99.99,,,0.00,Acu-Link.com,2013-05-25 07:01:00,
2013-05-25 02:16:00,71.2,70.9,30.05,NNW,337,0.0,-999.0,99,-99.99,,,0.00,Acu-Link.com,2013-05-25 07:16:00,
2013-05-25 02:31:00,71.1,70.8,30.05,NNW,337,0.0,-999.0,99,-99.99,,,0.00,Acu-Link.com,2013-05-25 07:31:00,
2013-05-25 02:47:00,71.2,70.9,30.05,NNE,22,3.1,-999.0,99,-99.99,,,0.00,Acu-Link.com,2013-05-25 07:47:00,
2013-05-25 03:02:00,71.6,71.3,30.05,ENE,67,2.2,-999.0,99,-99.99,,,0.00,Acu-Link.com,2013-05-25 08:02:00,
2013-05-25 03:17:00,72.0,71.7,30.05,ENE,67,0.0,-999.0,99,-99.99,,,0.00,Acu-Link.com,2013-05-25 08:17:00,
2013-05-25 03:32:00,72.1,71.8,30.05,ENE,67,0.0,-999.0,99,-99.99,,,0.00,Acu-Link.com,2013-05-25 08:32:00,
2013-05-25 03:48:00,72.1,71.8,30.05,South,180,0.0,-999.0,99,-99.99,,,0.00,Acu-Link.com,2013-05-25 08:48:00,
2013-05-25 04:03:00,72.1,71.8,30.05,SSE,157,0.0,-999.0,99,-99.99,,,0.00,Acu-Link.com,2013-05-25 09:03:00,
2013-05-25 04:18:00,72.1,71.8,30.05,SE,135,0.0,-999.0,99,-99.99,,,0.00,Acu-Link.com,2013-05-25 09:18:00,
2013-05-25 04:33:00,72.0,71.7,30.06,ENE,67,0.0,-999.0,99,-99.99,,,0.00,Acu-Link.com,2013-05-25 09:33:00,
2013-05-25 04:48:00,71.1,70.8,30.06,NNE,22,0.0,-999.0,99,-99.99,,,0.00,Acu-Link.com,2013-05-25 09:48:00,
2013-05-25 05:03:00,71.2,70.9,30.06,NE,45,0.0,-999.0,99,-99.99,,,0.00,Acu-Link.com,2013-05-25 10:03:00,
2013-05-25 05:19:00,71.2,70.9,30.07,ENE,67,0.0,-999.0,99,-99.99,,,0.00,Acu-Link.com,2013-05-25 10:19:00,
2013-05-25 05:34:00,71.4,71.1,30.07,WSW,247,0.0,-999.0,99,-99.99,,,0.00,Acu-Link.com,2013-05-25 10:34:00,
2013-05-25 05:49:00,71.4,71.1,30.07,East,90,0.0,-999.0,99,-99.99,,,0.00,Acu-Link.com,2013-05-25 10:49:00,
2013-05-25 06:04:00,71.4,71.1,30.08,West,270,0.0,-999.0,99,-99.99,,,0.00,Acu-Link.com,2013-05-25 11:04:00,
2013-05-25 06:20:00,71.4,71.1,30.09,NNE,22,0.0,-999.0,99,-99.99,,,0.00,Acu-Link.com,2013-05-25 11:20:00,
2013-05-25 06:35:00,71.4,71.1,30.09,NE,45,0.0,-999.0,99,-99.99,,,0.00,Acu-Link.com,2013-05-25 11:35:00,
2013-05-25 06:50:00,71.4,71.1,30.10,NNE,22,0.0,-999.0,99,-99.99,,,0.00,Acu-Link.com,2013-05-25 11:50:00,
2013-05-25 07:05:00,71.6,71.3,30.11,ESE,112,0.0,-999.0,99,-99.99,,,0.00,Acu-Link.com,2013-05-25 12:05:00,
2013-05-25 07:21:00,72.5,71.9,30.10,NE,45,0.0,-999.0,98,-99.99,,,0.00,Acu-Link.com,2013-05-25 12:21:00,
2013-05-25 07:36:00,73.6,72.1,30.10,South,180,0.0,-999.0,95,-99.99,,,0.00,Acu-Link.com,2013-05-25 12:36:00,
2013-05-25 07:51:00,73.9,71.5,30.11,West,270,0.0,-999.0,92,-99.99,,,0.00,Acu-Link.com,2013-05-25 12:51:00,
2013-05-25 08:07:00,75.0,71.9,30.11,SE,135,2.7,-999.0,90,-99.99,,,0.00,Acu-Link.com,2013-05-25 13:07:00,
2013-05-25 08:22:00,76.6,70.7,30.12,SE,135,4.7,-999.0,82,-99.99,,,0.00,Acu-Link.com,2013-05-25 13:22:00,
2013-05-25 08:37:00,77.9,70.8,30.13,ESE,112,1.6,-999.0,79,-99.99,,,0.00,Acu-Link.com,2013-05-25 13:37:00,
2013-05-25 08:52:00,79.7,70.3,30.13,ESE,112,1.6,-999.0,73,-99.99,,,0.00,Acu-Link.com,2013-05-25 13:52:00,
2013-05-25 09:07:00,82.6,70.0,30.13,ESE,112,2.7,-999.0,66,-99.99,,,0.00,Acu-Link.com,2013-05-25 14:07:00,
2013-05-25 09:23:00,82.8,68.9,30.13,ESE,112,4.3,-999.0,63,-99.99,,,0.00,Acu-Link.com,2013-05-25 14:23:00,
2013-05-25 09:38:00,84.7,71.2,30.12,ESE,112,1.6,-999.0,64,-99.99,,,0.00,Acu-Link.com,2013-05-25 14:38:00,
2013-05-25 09:53:00,80.8,70.5,30.13,ESE,112,2.2,-999.0,71,-99.99,,,0.00,Acu-Link.com,2013-05-25 14:53:00,
2013-05-25 10:09:00,80.2,69.1,30.12,SE,135,5.1,-999.0,69,-99.99,,,0.00,Acu-Link.com,2013-05-25 15:09:00,
2013-05-25 10:24:00,80.8,70.5,30.12,NNW,337,2.7,-999.0,71,-99.99,,,0.00,Acu-Link.com,2013-05-25 15:24:00,
2013-05-25 10:39:00,81.0,70.7,30.13,ESE,112,3.1,-999.0,71,-99.99,,,0.00,Acu-Link.com,2013-05-25 15:39:00,
2013-05-25 10:54:00,81.3,70.6,30.13,SSE,157,2.7,-999.0,70,-99.99,,,0.00,Acu-Link.com,2013-05-25 15:54:00,
2013-05-25 11:09:00,82.0,71.3,30.13,ESE,112,3.1,-999.0,70,-99.99,,,0.00,Acu-Link.com,2013-05-25 16:09:00,
2013-05-25 11:25:00,83.8,71.7,30.13,ESE,112,3.8,-999.0,67,-99.99,,,0.00,Acu-Link.com,2013-05-25 16:25:00,
2013-05-25 11:40:00,84.6,72.4,30.13,ESE,112,3.1,-999.0,67,-99.99,,,0.00,Acu-Link.com,2013-05-25 16:40:00,
2013-05-25 11:55:00,84.4,71.3,30.13,SSE,157,5.1,-999.0,65,-99.99,,,0.00,Acu-Link.com,2013-05-25 16:55:00,
2013-05-25 12:11:00,84.4,72.2,30.12,South,180,3.8,-999.0,67,-99.99,,,0.00,Acu-Link.com,2013-05-25 17:11:00,
2013-05-25 12:26:00,83.7,72.4,30.12,ESE,112,2.7,-999.0,69,-99.99,,,0.00,Acu-Link.com,2013-05-25 17:26:00,
2013-05-25 12:41:00,84.7,73.8,30.12,ENE,67,2.7,-999.0,70,-99.99,,,0.00,Acu-Link.com,2013-05-25 17:41:00,
2013-05-25 12:56:00,85.1,72.9,30.12,SE,135,4.3,-999.0,67,-99.99,,,0.00,Acu-Link.com,2013-05-25 17:56:00,
2013-05-25 13:11:00,85.3,73.9,30.11,SE,135,4.7,-999.0,69,-99.99,,,0.00,Acu-Link.com,2013-05-25 18:11:00,
2013-05-25 13:27:00,84.0,72.7,30.11,ESE,112,2.7,-999.0,69,-99.99,,,0.00,Acu-Link.com,2013-05-25 18:27:00,
2013-05-25 13:42:00,85.3,74.4,30.10,ESE,112,4.3,-999.0,70,-99.99,,,0.00,Acu-Link.com,2013-05-25 18:42:00,
2013-05-25 13:57:00,84.9,73.2,30.10,SSW,202,1.1,-999.0,68,-99.99,,,0.00,Acu-Link.com,2013-05-25 18:57:00,
2013-05-25 14:12:00,86.7,74.0,30.09,SE,135,4.7,-999.0,66,-99.99,,,0.00,Acu-Link.com,2013-05-25 19:12:00,
2013-05-25 14:28:00,86.4,74.1,30.09,East,90,2.2,-999.0,67,-99.99,,,0.00,Acu-Link.com,2013-05-25 19:28:00,
2013-05-25 14:43:00,87.3,72.6,30.09,SE,135,3.8,-999.0,62,-99.99,,,0.00,Acu-Link.com,2013-05-25 19:43:00,
2013-05-25 14:58:00,87.4,73.3,30.08,ESE,112,3.8,-999.0,63,-99.99,,,0.00,Acu-Link.com,2013-05-25 19:58:00,
2013-05-25 15:14:00,87.4,73.3,30.07,SSE,157,2.7,-999.0,63,-99.99,,,0.00,Acu-Link.com,2013-05-25 20:14:00,
2013-05-25 15:29:00,88.0,76.1,30.07,ESE,112,1.6,-999.0,68,-99.99,,,0.00,Acu-Link.com,2013-05-25 20:29:00,
2013-05-25 15:44:00,88.5,74.8,30.06,East,90,1.6,-999.0,64,-99.99,,,0.00,Acu-Link.com,2013-05-25 20:44:00,
2013-05-25 16:00:00,87.4,74.7,30.06,ESE,112,0.0,-999.0,66,-99.99,,,0.00,Acu-Link.com,2013-05-25 21:00:00,
2013-05-25 16:15:00,86.4,74.5,30.04,SSW,202,0.0,-999.0,68,-99.99,,,0.00,Acu-Link.com,2013-05-25 21:15:00,
2013-05-25 16:30:00,87.8,74.1,30.04,South,180,2.2,-999.0,64,-99.99,,,0.00,Acu-Link.com,2013-05-25 21:30:00,
2013-05-25 16:46:00,86.7,75.3,30.04,South,180,3.1,-999.0,69,-99.99,,,0.00,Acu-Link.com,2013-05-25 21:46:00,
2013-05-25 17:01:00,87.4,75.1,30.03,South,180,2.7,-999.0,67,-99.99,,,0.00,Acu-Link.com,2013-05-25 22:01:00,
2013-05-25 17:16:00,89.4,74.6,30.04,NNE,22,6.7,-999.0,62,-99.99,,,0.00,Acu-Link.com,2013-05-25 22:16:00,
2013-05-25 17:31:00,87.3,74.9,30.03,East,90,1.6,-999.0,67,-99.99,,,0.00,Acu-Link.com,2013-05-25 22:31:00,
2013-05-25 17:47:00,77.0,74.5,30.04,SSE,157,7.8,-999.0,92,-99.99,,,0.09,Acu-Link.com,2013-05-25 22:47:00,
2013-05-25 18:02:00,75.4,73.2,30.05,SE,135,9.4,-999.0,93,-99.99,,,0.28,Acu-Link.com,2013-05-25 23:02:00,
2013-05-25 18:17:00,72.3,70.8,30.06,SSW,202,0.0,-999.0,95,-99.99,,,0.55,Acu-Link.com,2013-05-25 23:17:00,
2013-05-25 18:33:00,71.6,69.5,30.05,ENE,67,2.2,-999.0,93,-99.99,,,0.81,Acu-Link.com,2013-05-25 23:33:00,
2013-05-25 18:48:00,71.1,70.5,30.04,WSW,247,3.1,-999.0,98,-99.99,,,0.84,Acu-Link.com,2013-05-25 23:48:00,
2013-05-25 19:03:00,71.4,69.9,30.06,SE,135,3.1,-999.0,95,-99.99,,,0.87,Acu-Link.com,2013-05-26 00:03:00,
2013-05-25 19:18:00,70.9,70.6,30.06,South,180,3.8,-999.0,99,-99.99,,,0.90,Acu-Link.com,2013-05-26 00:18:00,
2013-05-25 19:34:00,69.8,69.5,30.07,South,180,4.3,-999.0,99,-99.99,,,1.01,Acu-Link.com,2013-05-26 00:34:00,
2013-05-25 19:49:00,69.4,69.1,30.06,SSW,202,5.8,-999.0,99,-99.99,,,1.04,Acu-Link.com,2013-05-26 00:49:00,
2013-05-25 20:04:00,69.3,69.0,30.06,WSW,247,4.3,-999.0,99,-99.99,,,1.07,Acu-Link.com,2013-05-26 01:04:00,
2013-05-25 20:19:00,68.9,68.6,30.07,WNW,292,4.3,-999.0,99,-99.99,,,1.08,Acu-Link.com,2013-05-26 01:19:00,
2013-05-25 20:35:00,68.7,68.4,30.07,WNW,292,2.2,-999.0,99,-99.99,,,1.08,Acu-Link.com,2013-05-26 01:35:00,
2013-05-25 20:50:00,68.9,68.6,30.07,NW,315,2.7,-999.0,99,-99.99,,,1.09,Acu-Link.com,2013-05-26 01:50:00,
2013-05-25 21:05:00,69.3,69.0,30.06,SW,225,3.1,-999.0,99,-99.99,,,1.10,Acu-Link.com,2013-05-26 02:05:00,
2013-05-25 21:21:00,69.1,68.8,30.05,SSW,202,2.2,-999.0,99,-99.99,,,1.10,Acu-Link.com,2013-05-26 02:21:00,
2013-05-25 21:36:00,69.1,68.8,30.06,South,180,1.6,-999.0,99,-99.99,,,1.10,Acu-Link.com,2013-05-26 02:36:00,
2013-05-25 21:51:00,68.9,68.6,30.05,ENE,67,0.0,-999.0,99,-99.99,,,1.10,Acu-Link.com,2013-05-26 02:51:00,
2013-05-25 22:06:00,69.1,68.8,30.06,ESE,112,0.0,-999.0,99,-99.99,,,1.10,Acu-Link.com,2013-05-26 03:06:00,
2013-05-25 22:22:00,69.3,69.0,30.06,NW,315,0.0,-999.0,99,-99.99,,,1.10,Acu-Link.com,2013-05-26 03:22:00,
2013-05-25 22:37:00,69.3,69.0,30.06,NW,315,2.7,-999.0,99,-99.99,,,1.10,Acu-Link.com,2013-05-26 03:37:00,
2013-05-25 22:52:00,69.1,68.8,30.06,West,270,0.0,-999.0,99,-99.99,,,1.10,Acu-Link.com,2013-05-26 03:52:00,
2013-05-25 23:07:00,69.3,69.0,30.07,ESE,112,0.0,-999.0,99,-99.99,,,1.10,Acu-Link.com,2013-05-26 04:07:00,
2013-05-25 23:22:00,70.0,69.7,30.06,NNE,22,1.6,-999.0,99,-99.99,,,1.10,Acu-Link.com,2013-05-26 04:22:00,
2013-05-25 23:38:00,70.3,70.0,30.06,NE,45,1.6,-999.0,99,-99.99,,,1.10,Acu-Link.com,2013-05-26 04:38:00,
2013-05-25 23:53:00,70.3,70.0,30.06,NNE,22,2.7,-999.0,99,-99.99,,,1.10,Acu-Link.com,2013-05-26 04:53:00,